Location: Camp Roosevelt
(41.7914°N, 81.1673°W)
Time: 18:03:40
(UTC+00:00)

Okean O Rocket - Pass Details

Date: 29 October 2020
Orbit: 622 x 645 km, 98.2° (Epoch: 24 November)

Event Time Altitude Azimuth Distance (km) Brightness Sun altitude
Rises 23:50:26 0° 201° (SSW) 2,906 5.3 -17.0°
Reaches altitude 10° 23:53:08 10° 219° (SW) 2,001 4.7 -17.5°
Maximum altitude 23:56:20 20° 266° (W) 1,461 4.5 -18.1°
Drops below altitude 10° 23:59:32 10° 314° (NW) 2,005 4.8 -18.7°
Sets 00:02:15 0° 331° (NNW) 2,915 5.4 -19.2°
